Weather in Stolbishchi

Russia / Yaroslavl Oblast     57°53′17″N   39°17′20″E
temp.,
°C
wind,
m/s
gust,
m/s
humid.,
%
clouds,
%
prec.,
mm/h
press.,
hPa
HPBL,
m
18 april, sun
sun1800:00+5ne39801 0.0 1026216
03:00+4ne310830 0.0 1026209
06:00+3ene3118346 0.0 1026294
09:00+8ene596146 0.0 1026684
12:00+11ene694797 0.0 10261359
15:00+11ene6849100 0.0 10261550
18:00+9ene5860100 0.0 10261211
21:00+6ene5107599 0.0 1028665
19 april, mon
mon1900:00+4e41077100 0.0 1029619
03:00+3ene4978100 0.0 1029472
06:00+1ene41074100 0.0 1029500
09:00+4e5958100 0.0 1030724
12:00+7e6842100 0.0 10301404
15:00+9ese584074 0.0 10291786
18:00+8ese484789 0.0 10291626
21:00+4e3105999 0.0 1029354
20 april, tue
tue2000:00+3e51258100 0.0 1029603
03:00+2e51262100 0.0 1029512
06:00+1e51263100 0.0 1028638
09:00+4ese6115749 0.0 1027792
12:00+7ese61055100 0.0 10271130
15:00+9ese7105397 0.0 10251511
18:00+9ese6115895 0.0 10231353
21:00+7ese61456100 0.0 1022838
21 april, wed
wed2100:00+5e61553100 0.0 1020775
03:00+4e71654100 0.0 1016829
06:00+1ese81784100 1.1 10131028
09:00+1ese81796100 4.8 1011833
12:00+2ese81695100 0.3 1009895
15:00+3ese81694100 1.4 1007943
18:00+4ese81694100 0.8 1006943
21:00+5sse61387100 1.4 10061311
22 april, thu
thu2200:00+4sse71486100 0.3 10071367
03:00+3s71396100 0.6 10091176
06:00+2ssw51197100 0.6 1012902
09:00+2ssw51197100 0.9 1015623
12:00+4sw51096100 0.2 1018640
15:00+6wsw388396 0.3 1020917
18:00+8sw2580100 0.1 1021233
21:00+4sw1191100 0.1 102310